COSMOS 1867 COOLANT

基本信息
目录编号:
39646
目录名称:
COSMOS 1867 COOLANT
国际标识:
1987-060P
轨道中心:
EARTH
物体状态:
在轨
发射日期:
1987-07-10 UTC
轨道信息
数据来源: 国际轨道数据
星历时间: 2026-09-10T14:30:03+0800
半长轴: 7157.011km
偏心率: 0.0019111
轨道倾角: 65.009°
近地点辐角: 278.391°
升交点赤经: 132.540°
平近点角: 81.501°
近地点: 765.196km
远地点: 792.552km
周期: 100.429分钟
每日圈数: 14.33855
详细信息
发射场:
TTMTR
轨道高度:
LEO
数据来源:
AOE Integration Group
参考系:
TEME
时间系统:
UTC
历元类型:
SGP4
2D轨道图
3D轨道图
轨道高度分析图
轨道倾角分析图
轨道综合分析图
查看轨道综合分析图